星链-37259(STARLINK-37259)

导读

STARLINK-37259(NORAD编号68972)是美国SpaceX公司星链(Starlink)星座中的一颗低轨通信卫星,属于第二代星链V2-mini批次卫星,于2025年下半年至2026年初通过猎鹰九号火箭发射入轨。 它部署在近地轨道,运行周期约94分钟,配备激光星间链路与相控阵天线,支持Ku/Ka频段通信,可直接为全球用户提供高速宽带互联网服务,也支持手机直连业务,单颗覆盖范围超百公里,是星链全球组网的重要组成部分,助力实现无缝覆盖的空间互联网。

基本信息
目录编号:
68972
目录名称:
STARLINK-37259
国际标识:
2026-099X
轨道中心:
EARTH
卫星名称:
星链-37259
卫星全名:
星链-37259(STARLINK-37259)
卫星状态:
在轨 (已飞行133 天)
发射日期:
2026-05-01 UTC
国别 :
美国 (US)
星等 :
--
该卫星已列入 空间交会检测服务 Space Conjunction Data Service (SCDS) ,当前飞行风险评估等级: 无高风险
轨道信息
数据来源 国际轨道数据
星历时间: 2026-09-10T17:05:54+0800
21小时前
查看轨道信息
半长轴: 6840.774km
偏心率: 0.0000667
轨道倾角: 53.157°
近地点辐角 90.722°
升交点赤经 122.892°
平近点角 269.385°
近地点: 462.18km
远地点: 463.094km
周期: 93.846分钟
每日圈数: 15.344225
详细信息
固有亮度:
5
最大亮度:
2.5
卫星平台:
Starlink V1.0
覆盖范围:
全球
运营商:
太空探索技术公司
运营商所在国:
美国
制造商(研发单位):
太空探索技术公司
制造商所在国:
美国
使用方式:
暂无
卫星简介
Starlink 计划是 SpaceX 推出的全球卫星互联网项目,通过发射低轨道卫星,为全球尤其是偏远地区提供高速、低延迟的互联网服务。自 2019 年起,Starlink 已部署数千颗卫星,旨在缩小全球数字鸿沟,推动互联网普及。该项目还为军事、航空等行业提供通信支持,带来广泛经济效益。
2D轨道图
3D轨道图
轨道高度分析图
轨道倾角分析图
轨道综合分析图
查看轨道综合分析图
交会数据列表
事件ID 空间交会对象 最接近时刻(TCA) 交会距离 交会风险概率(CRP) 交会风险指数(CRI) 操作
CDM_260912-100006-058906-897221
2026-09-12T
10:00:32+0000
1.061 km
极远距离
1.002629E-5 中风险 0.55
CDM_260913-035806-060106-897221
2026-09-13T
03:58:48+0000
1.535 km
极远距离
2.793125E-6 低风险 0.44
CDM_260912-223006-060106-897222
2026-09-12T
22:30:32+0000
1.620 km
极远距离
2.38237E-6 低风险 0.43
CDM_260912-152806-058906-897221
2026-09-12T
15:28:49+0000
1.773 km
极远距离
1.934035E-6 低风险 0.41
CDM_260912-055605-314006-897221
2026-09-12T
05:56:28+0000
2.370 km
极远距离
1.239834E-6 低风险 0.37
CDM_260912-082606-058906-897222
2026-09-12T
08:26:45+0000
2.453 km
极远距离
9.419439E-7 极低风险 0.34
CDM_260913-000406-060106-897221
2026-09-13T
00:04:19+0000
2.456 km
极远距离
9.017344E-7 极低风险 0.34
CDM_260912-135506-058906-897222
2026-09-12T
13:55:01+0000
2.560 km
极远距离
8.785173E-7 极低风险 0.34
CDM_260906-153405-363806-897221
2026-09-06T
15:34:57+0000
2.791 km
极远距离
4.437839E-7 极低风险 0.28
与全量物体交会距离演化趋势
与全量物体交会风险概率演化趋势